CW0775 Weather Reports


time (UTC)temp
F
wind
direction
speed
knots
gust
knots
rain 1hr
in
rain 24hr
in
rain mn
in
humidity
%
barometer
mb
20260905221504 56 271 1.7 2.6 0.03 0.06 0.00 80 1025.9
20260905221005 57 282 0.9 4.3 0.03 0.06 0.00 78 1025.7
20260905220505 56 284 2.6 4.3 0.03 0.06 0.00 80 1025.7
20260905214506 54 270 0.0 2.6 0.00 0.03 0.03 84 1025.7
20260905213505 55 269 0.9 2.6 0.00 0.03 0.03 82 1025.7
20260905213005 55 270 0.9 1.7 0.00 0.03 0.03 81 1025.6
20260905211504 56 240 0.0 0.0 0.00 0.03 0.03 80 1025.4
20260905211004 56 248 0.0 0.0 0.00 0.03 0.03 80 1025.4
20260905210505 56 267 0.0 0.0 0.00 0.03 0.03 80 1025.4
20260905210004 56 271 0.9 1.7 0.00 0.03 0.03 79 1025.2
20260905204505 57 272 1.7 1.7 0.00 0.03 0.03 76 1025.1
20260905204005 58 269 0.0 1.7 0.00 0.03 0.03 75 1025.1
20260905203504 58 279 1.7 4.3 0.00 0.03 0.03 74 1025.1
20260905203004 58 274 2.6 4.3 0.00 0.03 0.03 74 1025.1
20260905201504 58 273 2.6 2.6 0.00 0.03 0.03 74 1025.1
20260905201004 59 275 1.7 2.6 0.00 0.03 0.03 74 1025.0
20260905200505 59 273 1.7 2.6 0.00 0.03 0.03 73 1025.1
20260905200004 59 272 1.7 2.6 0.00 0.03 0.03 73 1024.9
20260905194505 59 274 2.6 2.6 0.00 0.03 0.03 72 1024.8
20260905194005 59 271 1.7 2.6 0.00 0.03 0.03 72 1025.1
20260905193504 59 272 1.7 2.6 0.00 0.03 0.03 72 1025.1
20260905193005 59 269 1.7 2.6 0.00 0.03 0.03 72 1024.7
20260905191505 60 280 1.7 2.6 0.00 0.03 0.03 71 1024.5
20260905191005 60 271 0.9 1.7 0.00 0.03 0.03 70 1024.5
20260905190505 61 275 0.0 0.0 0.00 0.03 0.03 68 1024.7
20260905190005 62 275 0.0 1.7 0.00 0.03 0.03 66 1024.5
20260905184505 64 268 1.7 2.6 0.00 0.03 0.03 61 1024.4
20260905183505 66 274 1.7 2.6 0.00 0.03 0.03 57 1024.0
20260905183006 66 269 1.7 4.3 0.00 0.03 0.03 57 1024.4
20260905181004 68 289 1.7 4.3 0.00 0.03 0.03 53 1024.0
20260905174505 70 274 2.6 7.0 0.00 0.03 0.03 50 1023.7
20260905174005 70 349 4.3 7.0 0.00 0.03 0.03 49 1023.7
20260905173504 71 277 4.3 7.0 0.00 0.03 0.03 48 1023.5
20260905173004 71 285 2.6 12.2 0.00 0.03 0.03 48 1023.4
20260905171505 72 308 7.8 13.0 0.00 0.03 0.03 46 1023.4
20260905170506 72 277 4.3 13.0 0.00 0.03 0.03 46 1023.4
20260905170004 73 264 5.2 19.1 0.00 0.03 0.03 44 1023.4
20260905164004 73 287 8.7 14.8 0.00 0.03 0.03 44 1022.8
20260905163504 74 282 8.7 13.0 0.00 0.03 0.03 43 1022.8
20260905163005 73 289 7.8 20.9 0.00 0.03 0.03 44 1022.7
20260905161504 73 286 8.7 15.6 0.00 0.03 0.03 45 1022.7
20260905160505 74 268 6.1 12.2 0.00 0.03 0.03 45 1022.7
20260905160004 74 306 6.1 13.0 0.00 0.03 0.03 44 1022.7
20260905154504 74 354 7.8 12.2 0.00 0.03 0.03 44 1022.7
20260905154004 74 283 8.7 13.0 0.00 0.03 0.03 44 1022.4
20260905153004 74 294 7.8 14.8 0.00 0.03 0.03 44 1022.5
20260905151505 75 287 5.2 12.2 0.00 0.03 0.03 44 1022.2
20260905151004 74 282 6.1 13.0 0.00 0.03 0.03 44 1022.0
20260905150506 74 263 5.2 8.7 0.00 0.03 0.03 41 1022.4
20260905150004 75 272 2.6 14.8 0.00 0.03 0.03 44 1022.2
20260905144505 75 313 8.7 14.8 0.00 0.03 0.03 42 1022.4
20260905144004 76 266 1.7 11.3 0.00 0.03 0.03 42 1022.4
20260905143504 75 335 8.7 12.2 0.00 0.03 0.03 42 1022.2
20260905141504 74 280 5.2 12.2 0.00 0.03 0.03 45 1022.4
20260905141005 76 300 7.8 12.2 0.00 0.03 0.03 44 1022.2
20260905140505 76 312 1.7 6.1 0.00 0.03 0.03 43 1022.4
20260905140004 75 288 1.7 12.2 0.00 0.03 0.03 44 1022.1
20260905134505 75 269 6.1 15.6 0.00 0.03 0.03 45 1022.0
20260905134004 75 253 3.5 6.1 0.00 0.03 0.03 46 1022.0
20260905133504 75 292 4.3 14.8 0.00 0.03 0.03 45 1022.2
20260905131504 74 275 4.3 12.2 0.00 0.03 0.03 45 1022.4
20260905131004 74 256 5.2 12.2 0.00 0.03 0.03 47 1022.3
20260905130505 74 320 6.1 14.8 0.00 0.03 0.03 45 1022.2
20260905130004 74 282 8.7 18.2 0.00 0.03 0.03 46 1022.4
20260905124506 74 239 1.7 13.0 0.00 0.03 0.03 47 1022.2
20260905123004 73 284 5.2 12.2 0.00 0.03 0.03 48 1022.0
20260905121504 73 258 8.7 15.6 0.00 0.03 0.03 48 1022.0
20260905121004 73 286 4.3 12.2 0.00 0.03 0.03 50 1022.0
20260905120505 74 301 7.8 13.0 0.00 0.03 0.03 48 1022.4
20260905120004 75 276 5.2 8.7 0.00 0.03 0.03 48 1022.3
20260905114505 72 225 5.2 19.1 0.00 0.03 0.03 50 1022.1
20260905113504 72 269 6.1 8.7 0.00 0.03 0.03 51 1022.4
20260905113004 72 285 5.2 12.2 0.00 0.03 0.03 51 1022.4
20260905111504 71 309 5.2 8.7 0.00 0.03 0.03 53 1022.4
20260905111004 72 282 4.3 7.0 0.00 0.03 0.03 53 1022.4
20260905110505 71 296 4.3 12.2 0.00 0.03 0.03 54 1022.4
20260905110004 71 283 6.1 15.6 0.00 0.03 0.03 55 1022.5
20260905104004 70 281 4.3 11.3 0.00 0.03 0.03 55 1022.0
20260905103503 70 303 5.2 13.0 0.00 0.03 0.03 54 1022.4
20260905103004 71 160 5.2 13.0 0.00 0.03 0.03 55 1022.4
20260905101004 70 317 5.2 7.0 0.00 0.03 0.03 59 1022.1
20260905100505 70 281 4.3 8.7 0.00 0.03 0.03 59 1022.4
20260905100003 70 308 4.3 12.2 0.00 0.03 0.03 60 1022.3
20260905094505 69 263 3.5 13.0 0.00 0.03 0.03 63 1022.4
20260905094004 69 280 7.0 13.0 0.00 0.03 0.03 62 1022.4
20260905093005 68 281 5.2 14.8 0.00 0.03 0.03 64 1022.4
20260905091505 68 187 4.3 7.0 0.00 0.03 0.03 66 1022.2
20260905091005 68 279 4.3 6.1 0.00 0.03 0.03 68 1022.0
20260905090506 68 291 4.3 11.3 0.00 0.03 0.03 68 1022.0
20260905090006 67 294 2.6 11.3 0.00 0.03 0.03 71 1022.0
20260905084506 67 286 4.3 8.7 0.00 0.03 0.03 72 1022.0
20260905084006 66 283 1.7 8.7 0.00 0.03 0.03 73 1022.0
20260905083505 66 285 4.3 7.0 0.00 0.03 0.03 73 1022.0
20260905081505 66 246 0.9 6.1 0.00 0.03 0.03 77 1022.0
20260905081005 65 284 4.3 8.7 0.00 0.03 0.03 77 1022.0
20260905080506 65 289 6.1 12.2 0.00 0.03 0.03 76 1022.0
20260905080006 65 264 2.6 8.7 0.00 0.03 0.03 77 1021.9
20260905074506 65 260 2.6 6.1 0.00 0.03 0.03 80 1021.7
20260905074005 64 309 2.6 6.1 0.00 0.03 0.03 81 1021.6
20260905073505 65 237 2.6 6.1 0.00 0.03 0.03 81 1021.3
20260905073005 65 305 1.7 7.0 0.00 0.03 0.03 81 1021.3
20260905071506 64 218 2.6 4.3 0.00 0.03 0.03 83 1021.0
20260905071005 65 269 0.9 2.6 0.00 0.03 0.03 84 1021.0
20260905070505 64 220 0.9 4.3 0.00 0.03 0.03 84 1021.0
20260905070005 64 268 1.7 6.1 0.00 0.03 0.03 84 1021.0
20260905064506 64 245 0.0 0.0 0.00 0.03 0.03 88 1020.7
20260905064005 64 244 0.0 1.7 0.00 0.03 0.03 88 1021.0
20260905063006 63 247 0.0 1.7 0.00 0.03 0.03 88 1020.7
20260905061005 62 242 0.0 1.7 0.00 0.03 0.03 89 1020.3
20260905060005 62 202 1.7 2.6 0.00 0.03 0.03 91 1020.3
20260905054506 59 276 0.0 1.7 0.00 0.03 0.03 96 1020.0
20260905054005 59 262 0.0 0.0 0.00 0.03 0.03 96 1020.0
20260905053505 58 274 0.0 0.0 0.00 0.03 0.03 96 1020.0
20260905053005 58 269 0.0 0.0 0.00 0.03 0.03 96 1019.9
20260905051506 56 270 0.0 1.7 0.00 0.03 0.03 97 1019.6
20260905051005 57 269 0.0 0.0 0.00 0.03 0.03 97 1019.3
20260905050506 57 268 0.0 0.0 0.00 0.03 0.03 96 1019.5
20260905050005 57 269 0.0 1.7 0.00 0.03 0.03 97 1019.6
20260905044505 57 276 0.9 1.7 0.00 0.03 0.03 96 1019.0
20260905044005 57 261 0.0 0.0 0.00 0.03 0.03 97 1019.0
20260905043505 57 273 0.0 0.0 0.00 0.03 0.03 97 1019.0
20260905043005 57 270 0.0 1.7 0.00 0.03 0.03 96 1019.0
20260905041505 56 269 0.9 1.7 0.00 0.03 0.03 96 1019.0
20260905041005 56 275 0.9 1.7 0.00 0.03 0.03 96 1018.6
20260905040506 56 270 0.0 1.7 0.00 0.03 0.03 96 1018.6
20260905034005 58 273 0.0 0.0 0.01 0.03 0.03 96 1018.6
20260905033505 58 275 0.0 0.0 0.01 0.03 0.03 95 1018.3
20260905033005 59 260 0.0 1.7 0.01 0.03 0.03 96 1018.4
20260905031505 59 268 0.0 1.7 0.01 0.03 0.03 95 1018.3
20260905031005 59 272 0.0 1.7 0.01 0.03 0.03 95 1018.3
20260905030506 59 271 0.0 1.7 0.01 0.03 0.03 95 1018.3
20260905030006 59 269 0.9 1.7 0.00 0.02 0.02 95 1018.3
20260905024506 61 252 0.0 1.7 0.00 0.02 0.02 94 1018.3
20260905024005 61 237 0.0 1.7 0.00 0.02 0.02 94 1018.3
20260905023505 62 275 0.9 1.7 0.00 0.02 0.02 93 1017.9
20260905023005 62 236 0.0 1.7 0.00 0.02 0.02 93 1017.6
20260905021506 63 255 0.0 0.0 0.01 0.02 0.02 92 1017.9
20260905021005 63 272 0.0 1.7 0.01 0.02 0.02 91 1017.9
20260905020506 63 269 0.0 2.6 0.01 0.02 0.02 91 1017.8
20260905020005 63 277 0.9 2.6 0.01 0.02 0.02 91 1017.6
20260905014505 63 265 0.0 0.0 0.01 0.02 0.02 91 1017.6
20260905014005 64 248 0.0 1.7 0.01 0.02 0.02 91 1017.6
20260905013505 64 263 0.0 1.7 0.01 0.02 0.02 90 1017.6
20260905013005 64 270 0.9 2.6 0.01 0.02 0.02 90 1017.6
20260905011505 64 260 0.0 1.7 0.00 0.01 0.01 90 1017.9
20260905011005 64 265 0.0 0.0 0.00 0.01 0.01 91 1017.8
20260905010506 64 268 0.0 1.7 0.00 0.01 0.01 91 1017.6
20260905010005 64 267 0.0 2.6 0.00 0.01 0.01 91 1017.9
20260905003505 64 270 0.0 1.7 0.00 0.01 0.01 90 1017.6
20260905001505 65 254 0.0 1.7 0.00 0.01 0.01 89 1017.6
20260905001005 65 268 0.9 1.7 0.00 0.01 0.01 89 1017.6
20260905000005 65 245 0.0 4.3 0.00 0.01 0.01 89 1017.3
20260904234505 65 246 0.0 1.7 0.01 0.01 0.01 89 1017.3
20260904234005 65 246 0.0 1.7 0.01 0.01 0.01 89 1017.3
20260904233005 64 246 0.9 2.6 0.01 0.01 0.01 89 1017.3
20260904231505 65 246 0.0 0.0 0.01 0.01 0.01 88 1017.3
20260904231005 65 243 0.0 2.6 0.01 0.01 0.01 88 1016.8
20260904230506 65 279 1.7 4.3 0.01 0.01 0.01 88 1016.9
20260904230004 66 246 0.0 13.0 0.01 0.01 0.01 87 1017.5
20260904224004 68 311 1.7 7.0 0.00 0.00 0.00 85 1016.9
20260904223505 67 285 2.6 7.0 0.00 0.00 0.00 85 1016.8
20260904223005 68 276 1.7 14.8 0.00 0.00 0.00 85 1016.7